Montreal Mirabel, Quebec

1:42 PM EST on February 12, 2016 (GMT -0500)
Montreal International (Mirabel)

Weather History for CYMX - December, 2012

Change the Weather History Date:

Monday, December 24, 2012

  Actual Average Record
Temperature  
Mean Temperature 10 °F -  
Max Temperature 15 °F 23 °F 62 °F (2015)
Min Temperature 5 °F 9 °F -4 °F (2000)
Degree Days  
Heating Degree Days 55    
Moisture  
Dew Point 5 °F    
Average Humidity 80    
Maximum Humidity 92    
Minimum Humidity 62    
Precipitation  
Precipitation 0.00 in - - ()
Sea Level Pressure  
Sea Level Pressure 30.05 in    
Wind  
Wind Speed 5 mph ()    
Max Wind Speed 9 mph    
Max Gust Speed -    
Averages and records for this station are not official NWS values.
T = Trace of Precipitation, MM = Missing Value Source: Averaged Metar Reports

Daily Weather History Graph

Daily Weather History Graph

Search for Another Location

Airport or City:

Trip Planner

Search our weather history database for the weather conditions in past years. The results will help you decide how hot, cold, wet, or windy it might be!

Date:

Astronomy

Dec. 24, 2012 Rise Set
Actual Time 7:35 AM EST 4:16 PM EST
Civil Twilight 7:00 AM EST 4:51 PM EST
Nautical Twilight 6:23 AM EST 5:28 PM EST
Astronomical Twilight 5:46 AM EST 6:05 PM EST
Moon 1:46 PM EST (12/24) 4:07 AM EST (12/24)
Length of Visible Light 9h 50m
Length of Day
8h 41m
Waxing Gibbous, 88% of the Moon is Illuminated
Dec 24
Waxing Gibbous
Dec 28
Full
Jan 4
Last Quarter
Jan 11
New
Jan 18
First Quarter

Hourly Weather History & Observations

Time (EST) Temp. Windchill Dew Point Humidity Pressure Visibility Wind Dir Wind Speed Gust Speed Precip Events Conditions
12:00 AM 14.0 °F 5.1 °F 8.6 °F 79% 29.90 in 25.0 mi SW 5.8 mph - N/A   Overcast
1:00 AM 14.0 °F 3.9 °F 10.4 °F 86% 29.92 in 25.0 mi WSW 6.9 mph - N/A   Overcast
2:00 AM 14.0 °F 6.5 °F 10.4 °F 86% 29.93 in 25.0 mi SW 4.6 mph - N/A   Mostly Cloudy
3:00 AM 12.2 °F 0.7 °F 8.6 °F 85% 29.95 in 25.0 mi WSW 8.1 mph - N/A   Scattered Clouds
4:00 AM 10.4 °F -0.4 °F 6.8 °F 85% 29.96 in 25.0 mi WSW 6.9 mph - N/A   Overcast
5:00 AM 8.6 °F -2.6 °F 5.0 °F 85% 29.98 in 25.0 mi SW 6.9 mph - N/A   Scattered Clouds
6:00 AM 6.8 °F -3.5 °F 5.0 °F 92% 29.99 in 25.0 mi WSW 5.8 mph - N/A   Scattered Clouds
7:00 AM 6.8 °F -4.8 °F 3.2 °F 85% 30.03 in 25.0 mi West 6.9 mph - N/A   Partly Cloudy
8:00 AM 6.8 °F -2.0 °F 3.2 °F 85% 30.05 in 25.0 mi WSW 4.6 mph - N/A   Partly Cloudy
9:00 AM 6.8 °F -2.0 °F 3.2 °F 85% 30.09 in 25.0 mi WSW 4.6 mph - N/A   Clear
10:00 AM 10.4 °F 2.2 °F 5.0 °F 79% 30.10 in 45.0 mi WSW 4.6 mph - N/A   Clear
11:00 AM 12.2 °F 6.1 °F 5.0 °F 73% 30.09 in 45.0 mi SW 3.5 mph - N/A   Partly Cloudy
12:00 PM 14.0 °F 2.0 °F 6.8 °F 73% 30.09 in 45.0 mi SSW 9.2 mph - N/A   Partly Cloudy
1:00 PM 15.8 °F 8.6 °F 6.8 °F 68% 30.10 in 45.0 mi SW 4.6 mph - N/A   Partly Cloudy
2:00 PM 15.8 °F 6.1 °F 5.0 °F 62% 30.10 in 45.0 mi WSW 6.9 mph - N/A   Partly Cloudy
3:00 PM 15.8 °F 4.2 °F 5.0 °F 62% 30.11 in 45.0 mi SW 9.2 mph - N/A   Partly Cloudy
4:00 PM 14.0 °F 6.5 °F 5.0 °F 67% 30.11 in 45.0 mi SW 4.6 mph - N/A   Partly Cloudy
5:00 PM 12.2 °F 2.9 °F 5.0 °F 73% 30.11 in 25.0 mi SW 5.8 mph - N/A   Partly Cloudy
6:00 PM 8.6 °F 2.0 °F 5.0 °F 85% 30.11 in 25.0 mi West 3.5 mph - N/A   Clear
7:00 PM 6.8 °F -0.1 °F 3.2 °F 85% 30.10 in 25.0 mi WNW 3.5 mph - N/A   Clear
8:00 PM 5.0 °F - 3.2 °F 92% 30.10 in 25.0 mi Calm Calm - N/A   Scattered Clouds
9:00 PM 5.0 °F - 1.4 °F 85% 30.11 in 25.0 mi Calm Calm - N/A   Partly Cloudy
10:00 PM 5.0 °F - 1.4 °F 85% 30.11 in 25.0 mi Calm Calm - N/A   Mostly Cloudy
11:00 PM 5.0 °F - 1.4 °F 85% 30.11 in 25.0 mi Calm Calm - N/A   Overcast